TimeEST,TemperatureF,Dew PointF,Humidity,Sea Level PressureIn,VisibilityMPH,Wind Direction,Wind SpeedMPH,Gust SpeedMPH,PrecipitationIn,Events,Conditions,WindDirDegrees,DateUTC
12:53 AM,33.1,23.0,66,29.69,10.0,NNW,6.9,-,N/A,,Overcast,330,2013-03-03 05:53:00
1:53 AM,32.0,23.0,69,29.69,10.0,NW,8.1,-,N/A,,Overcast,320,2013-03-03 06:53:00
2:53 AM,30.9,21.9,69,29.68,10.0,WNW,9.2,-,N/A,,Overcast,300,2013-03-03 07:53:00
3:53 AM,30.0,21.9,72,29.68,10.0,NW,8.1,-,0.00,Snow,Light Snow,320,2013-03-03 08:53:00
4:53 AM,30.0,21.0,69,29.68,10.0,NW,12.7,17.3,0.00,,Overcast,320,2013-03-03 09:53:00
5:53 AM,30.0,21.0,69,29.69,10.0,NW,8.1,-,N/A,,Overcast,310,2013-03-03 10:53:00
6:53 AM,30.0,19.9,66,29.69,10.0,NW,9.2,-,N/A,,Overcast,320,2013-03-03 11:53:00
7:53 AM,30.0,19.9,66,29.70,10.0,NW,5.8,-,N/A,,Overcast,310,2013-03-03 12:53:00
8:53 AM,30.0,19.0,64,29.70,10.0,NNW,8.1,-,N/A,,Overcast,340,2013-03-03 13:53:00
9:53 AM,30.9,19.0,61,29.68,10.0,NW,11.5,-,N/A,,Overcast,310,2013-03-03 14:53:00
10:53 AM,33.1,19.9,59,29.67,10.0,North,10.4,-,N/A,,Overcast,350,2013-03-03 15:53:00
11:53 AM,35.1,19.9,54,29.66,10.0,NNW,6.9,16.1,N/A,,Overcast,340,2013-03-03 16:53:00
12:53 PM,37.0,19.9,50,29.64,10.0,Variable,6.9,-,N/A,,Overcast,0,2013-03-03 17:53:00
1:53 PM,37.0,21.0,52,29.62,10.0,West,5.8,-,N/A,,Overcast,280,2013-03-03 18:53:00
2:53 PM,36.0,23.0,59,29.63,10.0,NW,13.8,-,N/A,,Overcast,320,2013-03-03 19:53:00
3:53 PM,34.0,24.1,67,29.64,10.0,NW,10.4,-,N/A,,Overcast,310,2013-03-03 20:53:00
5:53 PM,33.1,23.0,66,29.66,10.0,NNW,10.4,18.4,N/A,,Mostly Cloudy,330,2013-03-03 22:53:00
6:53 PM,32.0,24.1,73,29.67,10.0,NNW,6.9,-,N/A,,Overcast,330,2013-03-03 23:53:00
7:53 PM,32.0,24.1,73,29.68,6.0,NNW,10.4,-,0.00,Snow,Light Snow,330,2013-03-04 00:53:00
8:53 PM,32.0,23.0,69,29.69,10.0,NW,6.9,-,0.00,,Overcast,310,2013-03-04 01:53:00
9:53 PM,32.0,19.9,61,29.70,10.0,NW,9.2,-,0.00,,Overcast,310,2013-03-04 02:53:00
10:53 PM,30.9,19.0,61,29.70,10.0,NW,10.4,-,N/A,,Mostly Cloudy,320,2013-03-04 03:53:00
11:53 PM,30.0,19.0,64,29.70,10.0,NNW,5.8,-,N/A,,Overcast,340,2013-03-04 04:53:00